Showing default

TOMORROW-R2, 56962

Orbit data source: Space-Track

TOMORROW-R2, 56962 is a payload satellite owned by Tomorrow.io (US) in SSO that was launched on Mon, 12 Jun 2023 UTC via an FALCON 9 launch vehicle from the Air Force Western Test Range (AFWTR). Payload-class satellites include a variety of spacecraft equipped with specific instruments for various scientific and technological missions. These include communications satellites like Starlink; space stations such as the ISS; scientific satellites like the Hubble; Earth observation satellites from companies like Planet Labs, Umbra, and HawkEye 360; GPS; miniature CubeSats for education and research; and military/defense satellites.

Loading next visibility...
Identifier
56962, 2023-084AG
Orbit
SSO
Country
Flag of USUS
Related business
Manufacturer
Astro Digital
Mission
Operational Commercial Radar Imaging
Bus & Motor
CORVUS-XL, Unknown motor
Mass
85 kg wet, 85 kg dry
Launch date (UTC)
2023-06-12 (3 years ago)
Launch vehicle
FALCON 9
Launch site
Air Force Western Test Range (AFWTR)
Object type
Payload
Rocket body
Debris
Shape & HBR
Box + 1 Dish, 1.0 m
Radar Cross Section
0.425 m², Medium (>0.1 m² and < 1m²)

Expand to show TLE details & history
Last TLE update: 15 hours ago

TLE from 15 hours ago
0 TOMORROW-R2
1 56962U 23084AG  26101.97633353  .00113023  00000-0  60660-3 0  9995
2 56962  97.5921 258.3728 0003536 157.4295 202.7128 15.79941817158534
Epoch: 2026-04-11T23:25Z
TLE epoch observation values (Epoch: 2026-04-11T23:25:55.216Z)
Latitude
0.00001°
Longitude
66.70481°
Altitude
335.96 km
Speed
7.706 km/s
True Right ascension
17h 13m 29s
True Declination
0° 00' 00"
Sunlit
Object was in full shadow at epoch
Visualization orbit readout
Latitude
Unknown
Longitude
Unknown
Altitude
Unknown
Speed
Unknown
Apparent Right ascension
Unknown
Apparent Declination
Unknown
Sunlit
N/A
Visualization observer readout
Local Sidereal Time
20:40:49
Azimuth
Unknown
Elevation
Unknown
Doppler factor
Unknown
Orbital elements
Apogee altitude
329.871 km
Perigee altitude
325.129 km
Semi-major axis
6,705.637 km
Eccentricity
0.00035
Inclination
97.5921°
RAAN
258.3728°
Arg. of periapsis
157.4295°
True anomaly
202.69716°
Mean anomaly
202.7128°
Eccentric anomaly
202.70498°
Mean motion
3.9526 °/min
Orbital period
91.08 mins
BSTAR
0.0006066
Loading maneuver chart data...
Computing Atmospheric mass density...

Documentation

Showing up to 5 results
|